Location: Peterborough
(44.3091°N, 78.3197°W)
Time: 19:53:57
(UTC-04:00)

Vanguard 3 - Pass Details

Date: 23 March 2023
Orbit: 507 x 3246 km, 33.4° (Epoch: 06 June)

Event Time Altitude Azimuth Distance (km) Brightness Sun altitude
Exits shadow 05:01:32 24° 219° (SW) 5,080 10.6 -23.2°
Maximum altitude 05:14:04 48° 162° (SSE) 3,704 10.3 -21.2°
Drops below altitude 10° 05:29:03 10° 94° (E) 5,071 12.2 -18.7°
Sets 05:32:33 0° 89° (E) 5,766 12.8 -18.1°
